Tracking 30986 objects as of 9-Jul-2025
HD Live streaming from Space Station
objects crossing your sky now

IRS P2 R/B

Track IRS P2 R/B now!
10-day predictions


NORAD ID: 23324
Int'l Code: 1994-068B
Perigee: 800.2 km
Apogee: 882.9 km
Inclination: 98.9 °
Period: 101.6 minutes
Semi major axis: 7212 km
RCS: 6.3284 m2 (large)
Launch date: October 15, 1994
Source: India (IND)
Launch site: SRIHARIKOTA (SRI)

Note: This is a ROCKET BODY
Your satellite tracking list
Your tracking list is empty




NASA's NSSDC Master Catalog

Two Line Element Set (TLE):
1 23324U 94068B   25189.78989527  .00000032  00000-0  37465-4 0  9995
2 23324  98.8860 259.6949 0057302 173.0305 187.1679 14.17329262588899
Source of the keplerian elements: AFSPC